Home > Weather > Chichester > Past weeks

Flag for United Kingdom Weather for the Past 2 Weeks in Chichester, England, United Kingdom

Now
49 °F

Cool.


Feels Like: 46 °F
Forecast: 52 / 65 °F
Wind: 7 mph from East

Location: Thorney Island

Current Time: May 5, 2016 at 8:20:05 AM

Latest Report: May 5, 2016 at 7:00 AM


Visibility: 16 mi

Pressure: 30.16 "Hg

Humidity: 80%

Dew Point: 43 °F

Location of ChichesterLocation

Historic Weather in Chichester — Graph

°F

Chichester Temperature Yesterday

Maximum temperature yesterday: 55 °F (at 3:00 PM)
Minimum temperature yesterday: 37 °F (at 6:00 AM)
Average temperature yesterday: 48 °F

High & Low Weather Summary for the Past Weeks

 TemperatureHumidityPressure
High64 °F (Apr 21, 4:00 PM)100% (May 4, 7:00 AM)30.40 "Hg (May 4, 7:00 AM)
Low34 °F (May 1, 6:00 AM)34% (Apr 30, 4:00 PM)29.74 "Hg (Apr 25, 6:00 PM)
Average48 °F72%30.13 "Hg
* Reported Apr 20 7:00 AM — May 5 7:00 AM, Chichester, Weather by CustomWeather, © 2016

Note: Actual official high and low records may vary slightly from our data, if they occured in-between our weather recording intervals... More about our weather records

Advertising

Chichester Weather History for the Previous 24 Hours

Scroll right to see more
 ConditionsComfort  
Time TempWeatherWind HumidityBarometerVisibility
7:00 AM
Thu, May 5
49 °FCool.7 mph80%30.16 "Hg16 mi
6:00 AM46 °FCool.7 mph84%30.16 "Hg17 mi
5:00 AM46 °FCool.8 mph84%30.16 "Hg11 mi
4:00 AM46 °FCool.8 mph81%30.17 "Hg11 mi
3:00 AM44 °FQuite cool.7 mph73%30.18 "Hg22 mi
1:00 AM41 °FQuite cool.6 mph91%30.22 "Hg14 mi
12:00 AM43 °FQuite cool.5 mph90%30.23 "Hg12 mi
11:00 PM
Wed, May 4
44 °FQuite cool.5 mph90%30.24 "Hg7 mi
10:00 PM46 °FCool.6 mph90%30.25 "Hg10 mi
9:00 PM47 °FCool.3 mph82%30.24 "Hg16 mi
8:00 PM50 °FCool.6 mph68%30.25 "Hg25 mi
7:00 PM53 °FCool.8 mph48%30.26 "Hg28 mi
6:00 PM54 °FCool.9 mph60%30.27 "Hg25 mi
4:00 PM55 °FCool.10 mph60%30.30 "Hg19 mi
3:00 PM55 °FCool.9 mph68%30.32 "Hg15 mi
2:00 PM55 °FCool.8 mph73%30.34 "Hg16 mi
1:00 PM54 °FCool.8 mph78%30.35 "Hg12 mi
12:00 PM54 °FCool.8 mph79%30.35 "Hg16 mi
11:00 AM53 °FCool.9 mph83%30.35 "Hg12 mi
10:00 AM53 °FCool.9 mph83%30.35 "Hg11 mi
9:00 AM51 °FCool.8 mph88%30.35 "Hg15 mi
8:00 AM47 °FCool.5 mph92%30.35 "Hg9 mi
Weather by CustomWeather, © 2016

See weather overviewHow to use our weather pages